| time (UTC) | temp F | wind direction | speed knots | gust knots | rain 1hr in | rain 24hr in | rain mn in | humidity % | barometer mb |
| 20260902034125 | 81 | 140 | 0.0 | 0.9 | 0.00 | 0.00 | 0.00 | 89 | 1015.4 |
| 20260902033624 | 81 | 211 | 0.0 | 0.0 | 0.00 | 0.00 | 0.00 | 89 | 1015.5 |
| 20260902033119 | 81 | 123 | 0.0 | 0.0 | 0.00 | 0.00 | 0.00 | 89 | 1015.6 |
| 20260902032618 | 81 | 210 | 0.0 | 0.0 | 0.00 | 0.00 | 0.00 | 89 | 1015.6 |
| 20260902032112 | 81 | 6 | 0.0 | 0.9 | 0.00 | 0.00 | 0.00 | 89 | 1015.9 |
| 20260902031607 | 81 | 205 | 0.0 | 0.0 | 0.00 | 0.00 | 0.00 | 89 | 1015.7 |
| 20260902031103 | 81 | 110 | 0.0 | 0.0 | 0.00 | 0.00 | 0.00 | 89 | 1015.8 |
| 20260902030558 | 81 | 110 | 0.0 | 0.0 | 0.00 | 0.00 | 0.00 | 89 | 1015.7 |
| 20260902030058 | 81 | 98 | 0.0 | 0.0 | 0.00 | 0.00 | 0.00 | 89 | 1015.9 |
| 20260902025558 | 81 | 356 | 0.0 | 0.0 | 0.00 | 0.00 | 0.00 | 90 | 1015.9 |
| 20260902025053 | 82 | 85 | 0.0 | 0.0 | 0.00 | 0.00 | 0.00 | 89 | 1016.0 |
| 20260902024549 | 82 | 85 | 0.0 | 0.0 | 0.00 | 0.00 | 0.00 | 89 | 1015.8 |
| 20260902024048 | 82 | 123 | 0.0 | 0.9 | 0.00 | 0.00 | 0.00 | 88 | 1016.0 |
| 20260902023544 | 82 | 346 | 0.0 | 0.0 | 0.00 | 0.00 | 0.00 | 88 | 1015.7 |
| 20260902023039 | 82 | 94 | 0.0 | 0.0 | 0.00 | 0.00 | 0.00 | 88 | 1015.9 |
| 20260902022533 | 82 | 3 | 0.0 | 0.9 | 0.00 | 0.00 | 0.00 | 88 | 1016.0 |
| 20260902022029 | 82 | 14 | 0.9 | 0.9 | 0.00 | 0.00 | 0.00 | 88 | 1015.9 |
| 20260902021525 | 82 | 221 | 0.0 | 0.9 | 0.00 | 0.00 | 0.00 | 88 | 1016.0 |
| 20260902021025 | 82 | 308 | 0.0 | 0.9 | 0.00 | 0.00 | 0.00 | 87 | 1015.8 |
| 20260902020520 | 82 | 58 | 0.0 | 0.9 | 0.00 | 0.00 | 0.00 | 87 | 1016.1 |
| 20260902020016 | 82 | 34 | 0.0 | 0.9 | 0.00 | 0.00 | 0.00 | 87 | 1015.8 |
| 20260902015512 | 82 | 42 | 0.0 | 0.9 | 0.00 | 0.00 | 0.00 | 87 | 1015.8 |
| 20260902015007 | 82 | 110 | 0.0 | 1.7 | 0.00 | 0.00 | 0.00 | 87 | 1015.7 |
| 20260902014503 | 82 | 237 | 0.0 | 1.7 | 0.00 | 0.00 | 0.00 | 87 | 1015.9 |
| 20260902013958 | 82 | 210 | 0.0 | 0.9 | 0.00 | 0.00 | 0.00 | 87 | 1015.6 |
| 20260902013453 | 82 | 265 | 0.0 | 1.7 | 0.00 | 0.00 | 0.00 | 87 | 1015.6 |
| 20260902012948 | 82 | 40 | 1.7 | 1.7 | 0.00 | 0.00 | 0.00 | 87 | 1015.6 |
| 20260902012444 | 82 | 87 | 0.0 | 0.0 | 0.00 | 0.00 | 0.00 | 87 | 1015.7 |
| 20260902011939 | 82 | 31 | 0.0 | 1.7 | 0.00 | 0.00 | 0.00 | 87 | 1015.5 |
| 20260902011435 | 82 | 207 | 0.0 | 0.9 | 0.00 | 0.00 | 0.00 | 87 | 1015.4 |
| 20260902010934 | 82 | 216 | 0.0 | 0.9 | 0.00 | 0.00 | 0.00 | 86 | 1015.3 |
| 20260902010429 | 82 | 184 | 0.9 | 1.7 | 0.00 | 0.00 | 0.00 | 86 | 1015.3 |
| 20260902005928 | 82 | 150 | 0.9 | 0.9 | 0.00 | 0.00 | 0.00 | 86 | 1015.3 |
| 20260902005427 | 82 | 134 | 0.0 | 0.0 | 0.00 | 0.00 | 0.00 | 86 | 1015.4 |
| 20260902004924 | 82 | 186 | 0.0 | 1.7 | 0.00 | 0.00 | 0.00 | 85 | 1015.3 |
| 20260902004423 | 82 | 162 | 0.9 | 1.7 | 0.00 | 0.00 | 0.00 | 86 | 1015.2 |
| 20260902003918 | 82 | 144 | 0.0 | 1.7 | 0.00 | 0.00 | 0.00 | 85 | 1015.2 |
| 20260902003413 | 82 | 36 | 0.9 | 1.7 | 0.00 | 0.00 | 0.00 | 85 | 1015.2 |
| 20260902002909 | 82 | 205 | 0.0 | 2.6 | 0.00 | 0.00 | 0.00 | 85 | 1015.1 |
| 20260902002409 | 82 | 70 | 0.0 | 1.7 | 0.00 | 0.00 | 0.00 | 85 | 1015.2 |
| 20260902001903 | 82 | 161 | 0.0 | 0.9 | 0.00 | 0.00 | 0.00 | 85 | 1015.6 |
| 20260902001358 | 82 | 124 | 0.0 | 0.9 | 0.00 | 0.00 | 0.00 | 85 | 1015.4 |
| 20260902000853 | 83 | 23 | 2.6 | 2.6 | 0.00 | 0.00 | 0.00 | 84 | 1015.4 |
| 20260902000353 | 83 | 17 | 2.6 | 2.6 | 0.00 | 0.00 | 0.00 | 83 | 1015.3 |
| 20260901235848 | 83 | 98 | 0.0 | 0.9 | 0.00 | 0.00 | 0.00 | 83 | 1015.4 |
| 20260901235343 | 83 | 180 | 0.9 | 1.7 | 0.00 | 0.00 | 0.00 | 82 | 1015.3 |
| 20260901234838 | 83 | 116 | 0.0 | 0.9 | 0.00 | 0.00 | 0.00 | 82 | 1015.1 |
| 20260901234332 | 83 | 172 | 0.0 | 1.7 | 0.00 | 0.00 | 0.00 | 82 | 1015.4 |
| 20260901233827 | 83 | 359 | 0.0 | 1.7 | 0.00 | 0.00 | 0.00 | 82 | 1015.3 |
| 20260901233323 | 83 | 10 | 0.0 | 1.7 | 0.00 | 0.00 | 0.00 | 81 | 1015.2 |
| 20260901232819 | 83 | 46 | 0.0 | 2.6 | 0.00 | 0.00 | 0.00 | 81 | 1015.1 |
| 20260901232313 | 84 | 18 | 0.0 | 2.6 | 0.00 | 0.00 | 0.00 | 80 | 1015.2 |
| 20260901231809 | 84 | 20 | 0.0 | 1.7 | 0.00 | 0.00 | 0.00 | 79 | 1015.1 |
| 20260901231305 | 84 | 79 | 0.0 | 2.6 | 0.00 | 0.00 | 0.00 | 79 | 1015.2 |
| 20260901230802 | 84 | 111 | 2.6 | 2.6 | 0.00 | 0.00 | 0.00 | 78 | 1015.2 |
| 20260901230301 | 84 | 153 | 0.0 | 2.6 | 0.00 | 0.00 | 0.00 | 78 | 1015.0 |
| 20260901225756 | 84 | 37 | 2.6 | 2.6 | 0.00 | 0.00 | 0.00 | 77 | 1015.0 |
| 20260901225250 | 85 | 100 | 0.0 | 1.7 | 0.00 | 0.00 | 0.00 | 77 | 1015.2 |
| 20260901224746 | 85 | 149 | 1.7 | 1.7 | 0.00 | 0.00 | 0.00 | 76 | 1015.0 |
| 20260901224242 | 86 | 125 | 0.0 | 1.7 | 0.00 | 0.00 | 0.00 | 75 | 1015.0 |
| 20260901223738 | 86 | 217 | 0.0 | 1.7 | 0.00 | 0.00 | 0.00 | 74 | 1015.1 |
| 20260901223238 | 85 | 182 | 0.0 | 2.6 | 0.00 | 0.00 | 0.00 | 74 | 1014.8 |
| 20260901222734 | 85 | 94 | 1.7 | 1.7 | 0.00 | 0.00 | 0.00 | 75 | 1015.0 |
| 20260901222230 | 86 | 245 | 0.0 | 2.6 | 0.00 | 0.00 | 0.00 | 72 | 1015.0 |
| 20260901221726 | 86 | 0 | 2.6 | 4.3 | 0.00 | 0.00 | 0.00 | 72 | 1015.1 |
| 20260901221222 | 86 | 59 | 1.7 | 2.6 | 0.00 | 0.00 | 0.00 | 71 | 1015.0 |
| 20260901220721 | 87 | 70 | 0.0 | 1.7 | 0.00 | 0.00 | 0.00 | 69 | 1015.0 |
| 20260901220221 | 88 | 48 | 0.9 | 2.6 | 0.00 | 0.00 | 0.00 | 68 | 1015.1 |
| 20260901215719 | 88 | 86 | 0.9 | 0.9 | 0.00 | 0.00 | 0.00 | 68 | 1015.2 |
| 20260901215213 | 87 | 7 | 0.9 | 2.6 | 0.00 | 0.00 | 0.00 | 69 | 1014.9 |
| 20260901214711 | 86 | 69 | 0.0 | 4.3 | 0.00 | 0.00 | 0.00 | 69 | 1015.1 |
| 20260901214201 | 87 | 98 | 0.0 | 3.5 | 0.00 | 0.00 | 0.00 | 69 | 1014.9 |
| 20260901213700 | 87 | 88 | 1.7 | 4.3 | 0.00 | 0.00 | 0.00 | 69 | 1014.9 |
| 20260901213155 | 87 | 24 | 0.9 | 1.7 | 0.00 | 0.00 | 0.00 | 69 | 1015.0 |
| 20260901212654 | 87 | 20 | 2.6 | 2.6 | 0.00 | 0.00 | 0.00 | 67 | 1014.9 |
| 20260901212151 | 87 | 53 | 1.7 | 1.7 | 0.00 | 0.00 | 0.00 | 67 | 1015.1 |
| 20260901211651 | 87 | 32 | 2.6 | 2.6 | 0.00 | 0.00 | 0.00 | 66 | 1015.1 |
| 20260901211147 | 87 | 42 | 0.0 | 2.6 | 0.00 | 0.00 | 0.00 | 66 | 1015.1 |
| 20260901210643 | 87 | 129 | 1.7 | 3.5 | 0.00 | 0.00 | 0.00 | 67 | 1014.9 |
| 20260901210139 | 87 | 358 | 1.7 | 1.7 | 0.00 | 0.00 | 0.00 | 66 | 1014.8 |
| 20260901205634 | 88 | 94 | 0.0 | 6.1 | 0.00 | 0.00 | 0.00 | 65 | 1015.2 |
| 20260901205129 | 89 | 81 | 0.0 | 2.6 | 0.00 | 0.00 | 0.00 | 62 | 1014.8 |
| 20260901204625 | 89 | 148 | 0.0 | 1.7 | 0.00 | 0.00 | 0.00 | 64 | 1015.2 |
| 20260901204125 | 91 | 169 | 0.0 | 2.6 | 0.00 | 0.00 | 0.00 | 62 | 1015.0 |
| 20260901203620 | 90 | 50 | 1.7 | 2.6 | 0.00 | 0.00 | 0.00 | 61 | 1015.0 |
| 20260901203114 | 89 | 110 | 0.9 | 2.6 | 0.00 | 0.00 | 0.00 | 64 | 1015.2 |
| 20260901202614 | 88 | 27 | 1.7 | 2.6 | 0.00 | 0.00 | 0.00 | 64 | 1015.1 |
| 20260901202110 | 88 | 29 | 1.7 | 1.7 | 0.00 | 0.00 | 0.00 | 63 | 1015.4 |
| 20260901201606 | 88 | 73 | 1.7 | 3.5 | 0.00 | 0.00 | 0.00 | 64 | 1015.4 |
| 20260901201105 | 88 | 15 | 2.6 | 4.3 | 0.00 | 0.00 | 0.00 | 62 | 1015.3 |
| 20260901200604 | 89 | 59 | 1.7 | 2.6 | 0.00 | 0.00 | 0.00 | 63 | 1015.6 |
| 20260901200059 | 88 | 59 | 0.9 | 2.6 | 0.00 | 0.00 | 0.00 | 63 | 1015.5 |
| 20260901195557 | 88 | 52 | 1.7 | 4.3 | 0.00 | 0.00 | 0.00 | 62 | 1015.5 |
| 20260901195057 | 89 | 17 | 2.6 | 3.5 | 0.00 | 0.00 | 0.00 | 62 | 1015.5 |
| 20260901194552 | 89 | 59 | 1.7 | 4.3 | 0.00 | 0.00 | 0.00 | 62 | 1015.6 |
| 20260901194047 | 89 | 24 | 1.7 | 4.3 | 0.00 | 0.00 | 0.00 | 62 | 1015.4 |
| 20260901193542 | 91 | 53 | 3.5 | 3.5 | 0.00 | 0.00 | 0.00 | 61 | 1015.3 |
| 20260901193037 | 91 | 42 | 3.5 | 4.3 | 0.00 | 0.00 | 0.00 | 60 | 1015.3 |
| 20260901192532 | 91 | 18 | 5.2 | 8.7 | 0.00 | 0.00 | 0.00 | 60 | 1015.3 |
| 20260901192028 | 91 | 26 | 4.3 | 5.2 | 0.00 | 0.00 | 0.00 | 61 | 1015.3 |
| 20260901191524 | 91 | 118 | 1.7 | 6.1 | 0.00 | 0.00 | 0.00 | 62 | 1015.4 |
| 20260901191020 | 93 | 37 | 2.6 | 5.2 | 0.00 | 0.00 | 0.00 | 56 | 1015.4 |
| 20260901190515 | 92 | 81 | 1.7 | 2.6 | 0.00 | 0.00 | 0.00 | 57 | 1015.2 |
| 20260901190014 | 91 | 63 | 0.0 | 7.8 | 0.00 | 0.00 | 0.00 | 58 | 1015.1 |
| 20260901185513 | 92 | 23 | 2.6 | 6.1 | 0.00 | 0.00 | 0.00 | 55 | 1015.2 |
| 20260901185012 | 93 | 62 | 1.7 | 4.3 | 0.00 | 0.00 | 0.00 | 56 | 1015.1 |
| 20260901184507 | 93 | 15 | 4.3 | 4.3 | 0.00 | 0.00 | 0.00 | 55 | 1015.3 |
| 20260901184003 | 92 | 57 | 0.9 | 3.5 | 0.00 | 0.00 | 0.00 | 57 | 1015.3 |
| 20260901183457 | 92 | 104 | 1.7 | 4.3 | 0.00 | 0.00 | 0.00 | 58 | 1015.2 |
| 20260901182953 | 93 | 85 | 0.9 | 4.3 | 0.00 | 0.00 | 0.00 | 58 | 1015.5 |
| 20260901182448 | 93 | 56 | 2.6 | 4.3 | 0.00 | 0.00 | 0.00 | 58 | 1015.5 |
| 20260901181943 | 93 | 60 | 3.5 | 3.5 | 0.00 | 0.00 | 0.00 | 58 | 1015.7 |
| 20260901181443 | 92 | 97 | 0.0 | 4.3 | 0.00 | 0.00 | 0.00 | 58 | 1015.7 |
| 20260901180941 | 92 | 49 | 1.7 | 4.3 | 0.00 | 0.00 | 0.00 | 58 | 1015.9 |
| 20260901180436 | 92 | 99 | 2.6 | 3.5 | 0.00 | 0.00 | 0.00 | 59 | 1016.0 |
| 20260901175934 | 92 | 52 | 2.6 | 3.5 | 0.00 | 0.00 | 0.00 | 59 | 1015.9 |
| 20260901175429 | 91 | 34 | 0.9 | 4.3 | 0.00 | 0.00 | 0.00 | 61 | 1016.1 |
| 20260901174924 | 92 | 116 | 1.7 | 4.3 | 0.00 | 0.00 | 0.00 | 62 | 1016.1 |
| 20260901174420 | 91 | 28 | 1.7 | 4.3 | 0.00 | 0.00 | 0.00 | 61 | 1016.1 |
| 20260901173916 | 91 | 83 | 2.6 | 2.6 | 0.00 | 0.00 | 0.00 | 63 | 1016.2 |
| 20260901173411 | 91 | 49 | 0.9 | 3.5 | 0.00 | 0.00 | 0.00 | 62 | 1016.3 |
| 20260901172907 | 91 | 79 | 1.7 | 2.6 | 0.00 | 0.00 | 0.00 | 62 | 1016.4 |
| 20260901172401 | 91 | 68 | 1.7 | 3.5 | 0.00 | 0.00 | 0.00 | 64 | 1016.4 |
| 20260901171859 | 90 | 87 | 0.9 | 3.5 | 0.00 | 0.00 | 0.00 | 66 | 1016.3 |
| 20260901171358 | 90 | 13 | 4.3 | 5.2 | 0.00 | 0.00 | 0.00 | 65 | 1016.6 |
| 20260901170856 | 90 | 49 | 2.6 | 3.5 | 0.00 | 0.00 | 0.00 | 65 | 1016.5 |
| 20260901170352 | 90 | 58 | 2.6 | 3.5 | 0.00 | 0.00 | 0.00 | 63 | 1016.5 |
| 20260901165846 | 90 | 53 | 1.7 | 2.6 | 0.00 | 0.00 | 0.00 | 63 | 1016.7 |
| 20260901165340 | 90 | 110 | 1.7 | 2.6 | 0.00 | 0.00 | 0.00 | 64 | 1016.7 |
| 20260901164837 | 92 | 51 | 3.5 | 3.5 | 0.00 | 0.00 | 0.00 | 62 | 1016.6 |
| 20260901164332 | 91 | 54 | 1.7 | 4.3 | 0.00 | 0.00 | 0.00 | 61 | 1016.7 |
| 20260901163831 | 90 | 63 | 1.7 | 4.3 | 0.00 | 0.00 | 0.00 | 65 | 1016.9 |
| 20260901163327 | 90 | 73 | 1.7 | 4.3 | 0.00 | 0.00 | 0.00 | 63 | 1016.6 |
| 20260901162822 | 90 | 116 | 0.0 | 4.3 | 0.00 | 0.00 | 0.00 | 63 | 1016.7 |
| 20260901162321 | 90 | 98 | 2.6 | 4.3 | 0.00 | 0.00 | 0.00 | 64 | 1016.9 |
| 20260901161820 | 91 | 98 | 1.7 | 2.6 | 0.00 | 0.00 | 0.00 | 64 | 1016.7 |
| 20260901161314 | 90 | 167 | 1.7 | 3.5 | 0.00 | 0.00 | 0.00 | 67 | 1016.7 |
| 20260901160810 | 89 | 10 | 0.0 | 2.6 | 0.00 | 0.00 | 0.00 | 67 | 1016.7 |
| 20260901160306 | 89 | 78 | 1.7 | 4.3 | 0.00 | 0.00 | 0.00 | 66 | 1016.8 |
| 20260901155805 | 89 | 31 | 0.0 | 2.6 | 0.00 | 0.00 | 0.00 | 64 | 1017.0 |
| 20260901155300 | 88 | 58 | 0.0 | 4.3 | 0.00 | 0.00 | 0.00 | 67 | 1016.8 |
| 20260901154756 | 88 | 59 | 1.7 | 3.5 | 0.00 | 0.00 | 0.00 | 66 | 1016.8 |
| 20260901154256 | 89 | 67 | 0.0 | 2.6 | 0.00 | 0.00 | 0.00 | 67 | 1017.0 |
| 20260901153751 | 89 | 46 | 1.7 | 2.6 | 0.00 | 0.00 | 0.00 | 68 | 1016.9 |
| 20260901153251 | 87 | 297 | 0.9 | 3.5 | 0.00 | 0.00 | 0.00 | 73 | 1017.0 |
| 20260901152750 | 85 | 4 | 0.0 | 2.6 | 0.00 | 0.00 | 0.00 | 78 | 1016.9 |
| 20260901152249 | 85 | 297 | 0.9 | 2.6 | 0.00 | 0.00 | 0.00 | 79 | 1016.8 |
| 20260901151744 | 85 | 10 | 0.9 | 4.3 | 0.00 | 0.00 | 0.00 | 79 | 1016.7 |
| 20260901151244 | 85 | 356 | 1.7 | 4.3 | 0.00 | 0.00 | 0.00 | 78 | 1017.2 |
| 20260901150744 | 86 | 285 | 4.3 | 6.1 | 0.00 | 0.00 | 0.00 | 77 | 1016.9 |
| 20260901150242 | 86 | 207 | 0.9 | 4.3 | 0.00 | 0.00 | 0.00 | 79 | 1016.9 |
| 20260901145740 | 85 | 5 | 1.7 | 2.6 | 0.00 | 0.00 | 0.00 | 79 | 1016.7 |
| 20260901145240 | 85 | 26 | 2.6 | 4.3 | 0.00 | 0.00 | 0.00 | 79 | 1016.6 |
| 20260901144735 | 85 | 38 | 0.0 | 2.6 | 0.00 | 0.00 | 0.00 | 79 | 1016.7 |
| 20260901144231 | 84 | 70 | 0.9 | 2.6 | 0.00 | 0.00 | 0.00 | 81 | 1016.8 |
| 20260901143726 | 83 | 250 | 0.0 | 0.0 | 0.00 | 0.00 | 0.00 | 81 | 1016.7 |
| 20260901143222 | 84 | 30 | 0.0 | 1.7 | 0.00 | 0.00 | 0.00 | 80 | 1016.5 |
| 20260901142719 | 84 | 123 | 0.0 | 1.7 | 0.00 | 0.00 | 0.00 | 80 | 1016.6 |
| 20260901142218 | 84 | 261 | 0.0 | 1.7 | 0.00 | 0.00 | 0.00 | 82 | 1016.8 |
| 20260901141713 | 83 | 5 | 1.7 | 1.7 | 0.00 | 0.00 | 0.00 | 81 | 1016.8 |
| 20260901141213 | 84 | 41 | 0.0 | 1.7 | 0.00 | 0.00 | 0.00 | 81 | 1016.5 |
| 20260901140712 | 84 | 46 | 0.0 | 2.6 | 0.00 | 0.00 | 0.00 | 80 | 1016.5 |
| 20260901140210 | 84 | 15 | 0.9 | 1.7 | 0.00 | 0.00 | 0.00 | 81 | 1016.7 |
| 20260901135706 | 84 | 129 | 0.9 | 2.6 | 0.00 | 0.00 | 0.00 | 81 | 1016.8 |
| 20260901135200 | 83 | 224 | 0.0 | 0.9 | 0.00 | 0.00 | 0.00 | 83 | 1016.7 |
| 20260901134656 | 83 | 148 | 0.9 | 1.7 | 0.00 | 0.00 | 0.00 | 85 | 1016.7 |
| 20260901134151 | 83 | 56 | 0.0 | 0.9 | 0.00 | 0.00 | 0.00 | 85 | 1016.6 |
| 20260901133650 | 83 | 15 | 0.0 | 1.7 | 0.00 | 0.00 | 0.00 | 85 | 1016.7 |
| 20260901133149 | 83 | 311 | 0.0 | 2.6 | 0.00 | 0.00 | 0.00 | 85 | 1016.6 |
| 20260901132643 | 83 | 186 | 0.0 | 1.7 | 0.00 | 0.00 | 0.00 | 86 | 1016.7 |
| 20260901132143 | 82 | 110 | 0.0 | 1.7 | 0.00 | 0.00 | 0.00 | 87 | 1016.5 |
| 20260901131643 | 82 | 209 | 0.0 | 1.7 | 0.00 | 0.00 | 0.00 | 89 | 1016.6 |
| 20260901131138 | 82 | 36 | 0.0 | 0.9 | 0.00 | 0.00 | 0.00 | 90 | 1016.6 |
| 20260901130633 | 81 | 5 | 0.0 | 2.6 | 0.00 | 0.00 | 0.00 | 90 | 1016.7 |
| 20260901130132 | 81 | 33 | 0.9 | 2.6 | 0.00 | 0.00 | 0.00 | 91 | 1016.5 |
| 20260901125630 | 81 | 53 | 0.9 | 2.6 | 0.00 | 0.00 | 0.00 | 91 | 1016.6 |
| 20260901125125 | 81 | 129 | 0.0 | 1.7 | 0.00 | 0.00 | 0.00 | 92 | 1016.4 |
| 20260901124620 | 80 | 318 | 0.0 | 2.6 | 0.00 | 0.00 | 0.00 | 92 | 1016.6 |
| 20260901124114 | 80 | 250 | 0.0 | 2.6 | 0.00 | 0.00 | 0.00 | 92 | 1016.4 |
| 20260901123615 | 80 | 270 | 0.0 | 0.0 | 0.00 | 0.00 | 0.00 | 93 | 1016.6 |
| 20260901123114 | 80 | 32 | 0.0 | 2.6 | 0.00 | 0.00 | 0.00 | 93 | 1016.3 |
| 20260901122612 | 80 | 30 | 1.7 | 1.7 | 0.00 | 0.00 | 0.00 | 93 | 1016.4 |
| 20260901122107 | 79 | 284 | 1.7 | 2.6 | 0.00 | 0.00 | 0.00 | 93 | 1016.2 |
| 20260901121602 | 79 | 215 | 0.9 | 1.7 | 0.00 | 0.00 | 0.00 | 94 | 1016.2 |
| 20260901121057 | 79 | 18 | 0.9 | 2.6 | 0.00 | 0.00 | 0.00 | 94 | 1016.0 |
| 20260901120556 | 79 | 265 | 0.0 | 0.0 | 0.00 | 0.00 | 0.00 | 94 | 1016.0 |
| 20260901120052 | 79 | 341 | 0.0 | 0.9 | 0.00 | 0.00 | 0.00 | 94 | 1016.2 |
| 20260901115547 | 79 | 123 | 0.0 | 0.9 | 0.00 | 0.00 | 0.00 | 95 | 1016.2 |
| 20260901115044 | 78 | 187 | 0.0 | 0.9 | 0.00 | 0.00 | 0.00 | 95 | 1016.2 |
| 20260901114540 | 78 | 275 | 0.0 | 1.7 | 0.00 | 0.00 | 0.00 | 95 | 1015.8 |
| 20260901114039 | 78 | 285 | 0.9 | 0.9 | 0.00 | 0.00 | 0.00 | 95 | 1015.9 |
| 20260901113538 | 78 | 219 | 0.9 | 1.7 | 0.00 | 0.00 | 0.00 | 95 | 1016.1 |
| 20260901113033 | 78 | 31 | 0.0 | 0.9 | 0.00 | 0.00 | 0.00 | 96 | 1015.9 |
| 20260901112527 | 78 | 84 | 0.0 | 0.9 | 0.00 | 0.00 | 0.00 | 96 | 1015.9 |
| 20260901112023 | 78 | 87 | 0.0 | 0.9 | 0.00 | 0.00 | 0.00 | 96 | 1015.8 |
| 20260901111521 | 78 | 140 | 0.0 | 0.9 | 0.00 | 0.00 | 0.00 | 96 | 1015.6 |
| 20260901111020 | 78 | 97 | 0.0 | 0.0 | 0.00 | 0.00 | 0.00 | 96 | 1015.5 |
| 20260901110516 | 78 | 109 | 0.0 | 0.0 | 0.00 | 0.00 | 0.00 | 96 | 1015.4 |
| 20260901110011 | 78 | 237 | 0.0 | 0.9 | 0.00 | 0.00 | 0.00 | 96 | 1015.6 |
| 20260901105507 | 78 | 207 | 0.0 | 0.9 | 0.00 | 0.00 | 0.00 | 96 | 1015.5 |
| 20260901105007 | 78 | 235 | 0.0 | 0.9 | 0.00 | 0.00 | 0.00 | 96 | 1015.6 |
| 20260901104503 | 78 | 31 | 0.0 | 0.9 | 0.00 | 0.00 | 0.00 | 96 | 1015.5 |
| 20260901103957 | 78 | 41 | 0.0 | 0.9 | 0.00 | 0.00 | 0.00 | 96 | 1015.4 |
| 20260901103453 | 78 | 45 | 0.0 | 0.9 | 0.00 | 0.00 | 0.00 | 96 | 1015.5 |
| 20260901102948 | 78 | 108 | 0.0 | 1.7 | 0.00 | 0.00 | 0.00 | 96 | 1015.2 |
| 20260901102448 | 78 | 296 | 0.0 | 0.9 | 0.00 | 0.00 | 0.00 | 96 | 1015.4 |
| 20260901101942 | 78 | 98 | 0.0 | 0.0 | 0.00 | 0.00 | 0.00 | 96 | 1015.3 |
| 20260901101438 | 78 | 88 | 0.0 | 0.9 | 0.00 | 0.00 | 0.00 | 96 | 1015.6 |
| 20260901100932 | 78 | 359 | 1.7 | 1.7 | 0.00 | 0.00 | 0.00 | 96 | 1015.2 |
| 20260901100427 | 78 | 183 | 0.0 | 0.9 | 0.00 | 0.00 | 0.00 | 96 | 1015.2 |
| 20260901095926 | 78 | 43 | 0.0 | 0.0 | 0.00 | 0.00 | 0.00 | 96 | 1015.4 |
| 20260901095425 | 78 | 302 | 0.0 | 0.9 | 0.00 | 0.00 | 0.00 | 96 | 1015.3 |
| 20260901094917 | 78 | 70 | 0.0 | 0.0 | 0.00 | 0.00 | 0.00 | 96 | 1015.3 |
| 20260901094418 | 78 | 190 | 0.0 | 0.9 | 0.00 | 0.00 | 0.00 | 96 | 1015.0 |
| 20260901093912 | 78 | 17 | 0.0 | 0.9 | 0.00 | 0.00 | 0.00 | 96 | 1015.1 |
| 20260901093411 | 78 | 325 | 0.0 | 0.0 | 0.00 | 0.00 | 0.00 | 96 | 1015.2 |
| 20260901092907 | 78 | 14 | 0.9 | 0.9 | 0.00 | 0.00 | 0.00 | 96 | 1015.1 |
| 20260901092403 | 78 | 134 | 0.0 | 0.0 | 0.00 | 0.00 | 0.00 | 96 | 1015.4 |
| 20260901091859 | 78 | 236 | 0.0 | 0.0 | 0.00 | 0.00 | 0.00 | 96 | 1015.3 |
| 20260901091358 | 78 | 163 | 0.0 | 0.9 | 0.00 | 0.00 | 0.00 | 96 | 1015.2 |
| 20260901090847 | 78 | 13 | 0.0 | 0.9 | 0.00 | 0.00 | 0.00 | 96 | 1015.1 |
| 20260901090342 | 78 | 36 | 0.0 | 0.0 | 0.00 | 0.00 | 0.00 | 96 | 1014.9 |
| 20260901085838 | 78 | 198 | 0.0 | 0.0 | 0.00 | 0.00 | 0.00 | 96 | 1014.9 |
| 20260901085333 | 78 | 85 | 0.0 | 0.9 | 0.00 | 0.00 | 0.00 | 96 | 1014.8 |
| 20260901084830 | 78 | 186 | 0.0 | 0.0 | 0.00 | 0.00 | 0.00 | 96 | 1014.9 |
| 20260901084326 | 78 | 25 | 0.0 | 0.0 | 0.00 | 0.00 | 0.00 | 96 | 1014.8 |
| 20260901083821 | 78 | 25 | 0.0 | 1.7 | 0.00 | 0.00 | 0.00 | 96 | 1015.1 |
| 20260901083321 | 78 | 10 | 0.0 | 0.9 | 0.00 | 0.00 | 0.00 | 96 | 1015.2 |
| 20260901082819 | 78 | 18 | 0.0 | 0.0 | 0.00 | 0.00 | 0.00 | 96 | 1014.8 |
| 20260901082315 | 78 | 25 | 0.0 | 0.0 | 0.00 | 0.00 | 0.00 | 96 | 1014.8 |
| 20260901081810 | 77 | 144 | 0.0 | 0.0 | 0.00 | 0.00 | 0.00 | 96 | 1015.1 |
| 20260901081309 | 77 | 144 | 0.0 | 0.0 | 0.00 | 0.00 | 0.00 | 96 | 1014.9 |
| 20260901080805 | 77 | 144 | 0.0 | 0.0 | 0.00 | 0.00 | 0.00 | 96 | 1015.1 |
| 20260901080304 | 77 | 144 | 0.0 | 0.0 | 0.00 | 0.00 | 0.00 | 96 | 1015.0 |
| 20260901075758 | 77 | 144 | 0.0 | 0.0 | 0.00 | 0.00 | 0.00 | 96 | 1014.9 |
| 20260901075254 | 77 | 308 | 0.0 | 0.0 | 0.00 | 0.00 | 0.00 | 96 | 1014.9 |
| 20260901074748 | 77 | 134 | 0.0 | 0.0 | 0.00 | 0.00 | 0.00 | 96 | 1015.0 |
| 20260901074243 | 77 | 134 | 0.0 | 0.0 | 0.00 | 0.00 | 0.00 | 96 | 1015.0 |
| 20260901073739 | 77 | 134 | 0.0 | 0.0 | 0.00 | 0.00 | 0.00 | 96 | 1015.2 |
| 20260901073234 | 77 | 134 | 0.0 | 0.0 | 0.00 | 0.00 | 0.00 | 96 | 1015.1 |
| 20260901072729 | 77 | 134 | 0.0 | 0.0 | 0.00 | 0.00 | 0.00 | 95 | 1015.3 |
| 20260901072224 | 77 | 134 | 0.0 | 0.0 | 0.00 | 0.00 | 0.00 | 95 | 1015.2 |
| 20260901071719 | 78 | 134 | 0.0 | 0.0 | 0.00 | 0.00 | 0.00 | 95 | 1015.5 |
| 20260901071219 | 78 | 134 | 0.0 | 0.0 | 0.00 | 0.00 | 0.00 | 95 | 1015.3 |
| 20260901070712 | 78 | 134 | 0.0 | 0.0 | 0.00 | 0.00 | 0.00 | 95 | 1015.6 |
| 20260901070208 | 78 | 134 | 0.0 | 0.0 | 0.00 | 0.00 | 0.00 | 95 | 1015.5 |
| 20260901065707 | 78 | 176 | 0.0 | 0.0 | 0.00 | 0.00 | 0.00 | 94 | 1015.6 |
| 20260901065202 | 78 | 176 | 0.0 | 0.0 | 0.00 | 0.00 | 0.00 | 94 | 1015.4 |
| 20260901064659 | 78 | 176 | 0.0 | 0.0 | 0.00 | 0.00 | 0.00 | 94 | 1015.5 |
| 20260901064155 | 78 | 31 | 0.0 | 0.0 | 0.00 | 0.00 | 0.00 | 94 | 1015.7 |
| 20260901063652 | 78 | 31 | 0.0 | 0.0 | 0.00 | 0.00 | 0.00 | 94 | 1015.7 |
| 20260901063147 | 78 | 31 | 0.0 | 0.9 | 0.00 | 0.00 | 0.00 | 94 | 1015.9 |
| 20260901062643 | 78 | 25 | 0.0 | 0.0 | 0.00 | 0.00 | 0.00 | 94 | 1015.9 |
| 20260901062139 | 78 | 123 | 0.0 | 0.0 | 0.00 | 0.00 | 0.00 | 94 | 1015.9 |
| 20260901061635 | 78 | 123 | 0.0 | 0.0 | 0.00 | 0.00 | 0.00 | 94 | 1015.9 |
| 20260901061134 | 78 | 123 | 0.0 | 0.0 | 0.00 | 0.00 | 0.00 | 94 | 1016.0 |
| 20260901060629 | 78 | 123 | 0.0 | 0.0 | 0.00 | 0.00 | 0.00 | 93 | 1016.0 |
| 20260901060125 | 78 | 123 | 0.0 | 0.0 | 0.00 | 0.00 | 0.00 | 94 | 1016.0 |
| 20260901055620 | 78 | 123 | 0.0 | 0.0 | 0.00 | 0.00 | 0.00 | 93 | 1016.1 |
| 20260901055116 | 78 | 123 | 0.0 | 0.0 | 0.00 | 0.00 | 0.00 | 93 | 1016.1 |
| 20260901054613 | 78 | 123 | 0.0 | 0.0 | 0.00 | 0.00 | 0.00 | 93 | 1016.0 |
| 20260901054109 | 78 | 123 | 0.0 | 0.0 | 0.00 | 0.00 | 0.00 | 93 | 1016.1 |
| 20260901053605 | 78 | 123 | 0.0 | 0.0 | 0.00 | 0.00 | 0.00 | 93 | 1016.2 |
| 20260901053100 | 78 | 123 | 0.0 | 0.0 | 0.00 | 0.00 | 0.00 | 93 | 1016.3 |
| 20260901052600 | 78 | 123 | 0.0 | 0.0 | 0.00 | 0.00 | 0.00 | 93 | 1016.2 |
| 20260901052055 | 79 | 198 | 0.0 | 0.0 | 0.00 | 0.00 | 0.00 | 93 | 1016.2 |
| 20260901051550 | 79 | 134 | 0.0 | 0.0 | 0.00 | 0.00 | 0.00 | 93 | 1016.4 |
| 20260901051049 | 79 | 134 | 0.0 | 0.0 | 0.00 | 0.00 | 0.00 | 92 | 1016.3 |
| 20260901050544 | 79 | 134 | 0.0 | 0.0 | 0.00 | 0.00 | 0.00 | 92 | 1016.4 |
| 20260901050039 | 79 | 134 | 0.0 | 0.0 | 0.00 | 0.00 | 0.00 | 92 | 1016.3 |
| 20260901045534 | 79 | 134 | 0.0 | 0.0 | 0.00 | 0.00 | 0.00 | 92 | 1016.3 |
| 20260901045029 | 79 | 31 | 0.0 | 0.0 | 0.00 | 0.00 | 0.00 | 92 | 1016.2 |
| 20260901044525 | 79 | 19 | 0.0 | 0.0 | 0.00 | 0.00 | 0.00 | 92 | 1016.5 |
| 20260901044021 | 79 | 199 | 0.0 | 0.0 | 0.00 | 0.00 | 0.00 | 92 | 1016.3 |
| 20260901043516 | 79 | 199 | 0.0 | 0.0 | 0.00 | 0.00 | 0.00 | 91 | 1016.6 |
| 20260901043011 | 80 | 199 | 0.0 | 0.0 | 0.00 | 0.00 | 0.00 | 91 | 1016.6 |
| 20260901042511 | 80 | 199 | 0.0 | 0.0 | 0.00 | 0.00 | 0.00 | 90 | 1016.5 |
| 20260901042006 | 80 | 167 | 0.9 | 0.9 | 0.00 | 0.00 | 0.00 | 90 | 1016.5 |
| 20260901041501 | 80 | 198 | 0.0 | 0.0 | 0.00 | 0.00 | 0.00 | 90 | 1016.6 |
| 20260901040955 | 80 | 13 | 0.0 | 0.9 | 0.00 | 0.00 | 0.00 | 90 | 1016.4 |
| 20260901040450 | 80 | 357 | 0.0 | 1.7 | 0.00 | 0.00 | 0.00 | 90 | 1016.3 |
| 20260901035949 | 80 | 150 | 0.0 | 0.9 | 0.00 | 0.00 | 0.00 | 90 | 1016.5 |
| 20260901035448 | 80 | 50 | 0.0 | 0.0 | 0.00 | 0.00 | 0.00 | 90 | 1016.6 |
| 20260901034947 | 80 | 0 | 0.0 | 1.7 | 0.00 | 0.00 | 0.00 | 90 | 1016.8 |